User: anonymous   Login
Location: Unspecified
(0.0000°N, 0.0000°E)
Time: 18:51:23
(UTC+00:00)
Language:

Himawari 4 - Orbit

View from above orbital plane
View from above orbital plane
View from above satellite
View from above satellite

Ground track
Ground track

The orbit data is extracted from the following two-line orbital elements,

1 20217U 89070A   19340.71021667 -.00000079 +00000-0 +00000-0 0  9990
2 20217 015.8039 005.1933 0044706 082.2495 107.1954 00.97411063109314
Epoch (UTC): 06 December 2019 17:02:42
Eccentricity: 0.0044706
inclination: 15.8039°
perigee height: 36415 km
apogee height: 36800 km
right ascension of ascending node: 5.1933°
argument of perigee: 82.2495°
revolutions per day: 0.97411063
mean anomaly at epoch: 107.1954°
orbit number at epoch: 10931

The dashed part of the orbit path shows where the satellite is in the earth's shadow,  

DLR